Time,TemperatureF,DewpointF,PressureIn,WindDirection,WindDirectionDegrees,WindSpeedMPH,WindSpeedGustMPH,Humidity,HourlyPrecipIn,Conditions,Clouds,dailyrainin,SolarRadiationWatts/m^2,SoftwareType,DateUTC
2013-01-10 00:00:00,44.0,42.6,30.53,SSE,157,0.0,1.0,95,0.00,,,0.00,0,HR-IXPWINDi_r2_v1.2.,2013-01-10 05:00:00,
2013-01-10 00:05:00,44.1,43.0,30.53,SSE,157,1.0,2.0,96,0.00,,,0.00,0,HR-IXPWINDi_r2_v1.2.,2013-01-10 05:05:00,
2013-01-10 00:10:00,44.3,43.2,30.54,SSE,157,0.0,2.0,96,0.00,,,0.00,0,HR-IXPWINDi_r2_v1.2.,2013-01-10 05:10:00,
2013-01-10 00:16:00,44.1,43.0,30.54,SSE,157,0.0,2.0,96,0.00,,,0.00,0,HR-IXPWINDi_r2_v1.2.,2013-01-10 05:16:00,
2013-01-10 00:21:00,43.9,42.5,30.54,SSE,157,0.0,2.0,95,0.00,,,0.00,0,HR-IXPWINDi_r2_v1.2.,2013-01-10 05:21:00,
2013-01-10 00:26:00,43.9,42.8,30.54,SSE,157,0.0,1.0,96,0.00,,,0.00,0,HR-IXPWINDi_r2_v1.2.,2013-01-10 05:26:00,
2013-01-10 00:31:00,44.0,42.6,30.54,SSE,157,0.0,0.0,95,0.00,,,0.00,0,HR-IXPWINDi_r2_v1.2.,2013-01-10 05:31:00,
2013-01-10 00:37:00,44.2,43.1,30.54,SSE,157,0.0,0.0,96,0.00,,,0.00,0,HR-IXPWINDi_r2_v1.2.,2013-01-10 05:37:00,
2013-01-10 00:42:00,44.3,43.2,30.55,SSE,157,0.0,0.0,96,0.00,,,0.00,0,HR-IXPWINDi_r2_v1.2.,2013-01-10 05:42:00,
2013-01-10 00:47:00,44.2,43.1,30.55,SSE,157,0.0,0.0,96,0.00,,,0.00,0,HR-IXPWINDi_r2_v1.2.,2013-01-10 05:47:00,
2013-01-10 00:52:00,44.0,42.6,30.54,SSE,157,1.0,2.0,95,0.00,,,0.00,0,HR-IXPWINDi_r2_v1.2.,2013-01-10 05:52:00,
2013-01-10 00:57:00,43.6,42.2,30.53,SE,145,4.0,4.0,95,0.00,,,0.00,0,HR-IXPWINDi_r2_v1.2.,2013-01-10 05:57:00,
2013-01-10 01:02:00,43.9,42.8,30.54,SE,144,4.0,5.0,96,0.00,,,0.00,0,HR-IXPWINDi_r2_v1.2.,2013-01-10 06:02:00,
2013-01-10 01:07:00,44.6,43.5,30.53,SE,143,1.0,5.0,96,0.00,,,0.00,0,HR-IXPWINDi_r2_v1.2.,2013-01-10 06:07:00,
2013-01-10 01:13:00,45.1,44.0,30.53,SE,143,0.0,5.0,96,0.00,,,0.00,0,HR-IXPWINDi_r2_v1.2.,2013-01-10 06:13:00,
2013-01-10 01:18:00,44.8,43.7,30.53,SE,143,2.0,2.0,96,0.00,,,0.00,0,HR-IXPWINDi_r2_v1.2.,2013-01-10 06:18:00,
2013-01-10 01:23:00,45.4,44.3,30.53,SE,143,0.0,4.0,96,0.00,,,0.00,0,HR-IXPWINDi_r2_v1.2.,2013-01-10 06:23:00,
2013-01-10 01:28:00,44.6,43.2,30.53,SE,143,0.0,4.0,95,0.00,,,0.00,0,HR-IXPWINDi_r2_v1.2.,2013-01-10 06:28:00,
2013-01-10 01:33:00,44.3,42.9,30.53,SE,143,0.0,4.0,95,0.00,,,0.00,0,HR-IXPWINDi_r2_v1.2.,2013-01-10 06:33:00,
2013-01-10 01:38:00,43.7,42.6,30.53,SE,143,0.0,4.0,96,0.00,,,0.00,0,HR-IXPWINDi_r2_v1.2.,2013-01-10 06:38:00,
2013-01-10 01:44:00,43.1,42.0,30.52,SE,143,1.0,2.0,96,0.00,,,0.00,0,HR-IXPWINDi_r2_v1.2.,2013-01-10 06:44:00,
2013-01-10 01:49:00,43.0,41.9,30.53,SE,143,0.0,2.0,96,0.00,,,0.00,0,HR-IXPWINDi_r2_v1.2.,2013-01-10 06:49:00,
2013-01-10 01:54:00,43.4,42.3,30.53,SE,143,0.0,2.0,96,0.00,,,0.00,0,HR-IXPWINDi_r2_v1.2.,2013-01-10 06:54:00,
2013-01-10 01:59:00,43.6,42.5,30.53,SE,143,1.0,2.0,96,0.00,,,0.00,0,HR-IXPWINDi_r2_v1.2.,2013-01-10 06:59:00,
2013-01-10 02:04:00,43.4,42.3,30.52,NE,42,1.0,4.0,96,0.00,,,0.00,0,HR-IXPWINDi_r2_v1.2.,2013-01-10 07:04:00,
2013-01-10 02:09:00,43.3,42.2,30.53,ESE,117,1.0,4.0,96,0.00,,,0.00,0,HR-IXPWINDi_r2_v1.2.,2013-01-10 07:09:00,
2013-01-10 02:15:00,43.2,42.1,30.52,East,82,2.0,4.0,96,0.00,,,0.00,0,HR-IXPWINDi_r2_v1.2.,2013-01-10 07:15:00,
2013-01-10 02:20:00,42.8,41.7,30.52,East,82,0.0,3.0,96,0.00,,,0.00,0,HR-IXPWINDi_r2_v1.2.,2013-01-10 07:20:00,
2013-01-10 02:25:00,43.3,42.2,30.52,East,82,0.0,2.0,96,0.00,,,0.00,0,HR-IXPWINDi_r2_v1.2.,2013-01-10 07:25:00,
2013-01-10 02:30:00,42.9,41.8,30.52,East,82,0.0,2.0,96,0.00,,,0.00,0,HR-IXPWINDi_r2_v1.2.,2013-01-10 07:30:00,
2013-01-10 02:36:00,42.9,41.8,30.52,East,82,0.0,2.0,96,0.00,,,0.00,0,HR-IXPWINDi_r2_v1.2.,2013-01-10 07:36:00,
2013-01-10 02:41:00,42.5,41.4,30.52,East,82,0.0,0.0,96,0.00,,,0.00,0,HR-IXPWINDi_r2_v1.2.,2013-01-10 07:41:00,
2013-01-10 02:46:00,42.5,41.4,30.52,East,82,0.0,0.0,96,0.00,,,0.00,0,HR-IXPWINDi_r2_v1.2.,2013-01-10 07:46:00,
2013-01-10 02:51:00,42.5,41.7,30.52,East,82,2.0,2.0,97,0.00,,,0.00,0,HR-IXPWINDi_r2_v1.2.,2013-01-10 07:51:00,
2013-01-10 02:57:00,42.2,41.1,30.52,East,82,0.0,2.0,96,0.00,,,0.00,0,HR-IXPWINDi_r2_v1.2.,2013-01-10 07:57:00,
2013-01-10 03:02:00,41.7,40.6,30.52,East,82,0.0,2.0,96,0.00,,,0.00,0,HR-IXPWINDi_r2_v1.2.,2013-01-10 08:02:00,
2013-01-10 03:07:00,42.1,41.3,30.52,East,82,1.0,1.0,97,0.00,,,0.00,0,HR-IXPWINDi_r2_v1.2.,2013-01-10 08:07:00,
2013-01-10 03:12:00,41.9,41.1,30.52,East,82,0.0,3.0,97,0.00,,,0.00,0,HR-IXPWINDi_r2_v1.2.,2013-01-10 08:12:00,
2013-01-10 03:17:00,41.5,40.4,30.53,East,82,0.0,3.0,96,0.00,,,0.00,0,HR-IXPWINDi_r2_v1.2.,2013-01-10 08:17:00,
2013-01-10 03:22:00,41.6,40.5,30.52,East,82,0.0,0.0,96,0.00,,,0.00,0,HR-IXPWINDi_r2_v1.2.,2013-01-10 08:22:00,
2013-01-10 03:27:00,41.8,41.0,30.52,East,82,0.0,1.0,97,0.00,,,0.00,0,HR-IXPWINDi_r2_v1.2.,2013-01-10 08:27:00,
2013-01-10 03:33:00,41.7,40.9,30.52,East,82,0.0,1.0,97,0.00,,,0.00,0,HR-IXPWINDi_r2_v1.2.,2013-01-10 08:33:00,
2013-01-10 03:38:00,41.3,40.5,30.52,East,82,2.0,2.0,97,0.00,,,0.00,0,HR-IXPWINDi_r2_v1.2.,2013-01-10 08:38:00,
2013-01-10 03:43:00,41.9,41.1,30.52,East,82,0.0,2.0,97,0.00,,,0.00,0,HR-IXPWINDi_r2_v1.2.,2013-01-10 08:43:00,
2013-01-10 03:48:00,42.0,41.2,30.51,East,82,2.0,3.0,97,0.00,,,0.00,0,HR-IXPWINDi_r2_v1.2.,2013-01-10 08:48:00,
2013-01-10 03:53:00,42.0,41.2,30.51,East,82,0.0,3.0,97,0.00,,,0.00,0,HR-IXPWINDi_r2_v1.2.,2013-01-10 08:53:00,
2013-01-10 03:58:00,42.0,41.2,30.51,East,82,0.0,3.0,97,0.00,,,0.00,0,HR-IXPWINDi_r2_v1.2.,2013-01-10 08:58:00,
2013-01-10 04:03:00,42.0,41.2,30.51,East,82,0.0,2.0,97,0.00,,,0.00,0,HR-IXPWINDi_r2_v1.2.,2013-01-10 09:03:00,
2013-01-10 04:09:00,41.7,40.9,30.51,East,82,0.0,2.0,97,0.00,,,0.00,0,HR-IXPWINDi_r2_v1.2.,2013-01-10 09:09:00,
2013-01-10 04:14:00,42.0,41.2,30.51,East,82,0.0,1.0,97,0.00,,,0.00,0,HR-IXPWINDi_r2_v1.2.,2013-01-10 09:14:00,
2013-01-10 04:19:00,42.0,41.2,30.51,East,82,0.0,0.0,97,0.00,,,0.00,0,HR-IXPWINDi_r2_v1.2.,2013-01-10 09:19:00,
2013-01-10 04:24:00,41.7,40.9,30.51,East,82,0.0,0.0,97,0.00,,,0.00,0,HR-IXPWINDi_r2_v1.2.,2013-01-10 09:24:00,
2013-01-10 04:29:00,41.4,40.6,30.52,East,82,0.0,0.0,97,0.00,,,0.00,0,HR-IXPWINDi_r2_v1.2.,2013-01-10 09:29:00,
2013-01-10 04:34:00,41.4,40.6,30.52,East,82,0.0,0.0,97,0.00,,,0.00,0,HR-IXPWINDi_r2_v1.2.,2013-01-10 09:34:00,
2013-01-10 04:39:00,41.3,40.5,30.52,East,82,0.0,0.0,97,0.00,,,0.00,0,HR-IXPWINDi_r2_v1.2.,2013-01-10 09:39:00,
2013-01-10 04:45:00,41.3,40.5,30.51,East,82,0.0,0.0,97,0.00,,,0.00,0,HR-IXPWINDi_r2_v1.2.,2013-01-10 09:45:00,
2013-01-10 04:50:00,41.5,40.7,30.51,East,82,0.0,0.0,97,0.00,,,0.00,0,HR-IXPWINDi_r2_v1.2.,2013-01-10 09:50:00,
2013-01-10 04:55:00,41.4,40.6,30.51,East,82,0.0,0.0,97,0.00,,,0.00,0,HR-IXPWINDi_r2_v1.2.,2013-01-10 09:55:00,
2013-01-10 05:00:00,41.3,40.5,30.51,East,82,0.0,0.0,97,0.00,,,0.00,0,HR-IXPWINDi_r2_v1.2.,2013-01-10 10:00:00,
2013-01-10 05:05:00,41.6,40.8,30.51,East,82,0.0,0.0,97,0.00,,,0.00,0,HR-IXPWINDi_r2_v1.2.,2013-01-10 10:05:00,
2013-01-10 05:11:00,41.5,40.7,30.50,East,82,2.0,3.0,97,0.00,,,0.00,0,HR-IXPWINDi_r2_v1.2.,2013-01-10 10:11:00,
2013-01-10 05:16:00,41.3,40.5,30.50,East,82,0.0,3.0,97,0.00,,,0.00,0,HR-IXPWINDi_r2_v1.2.,2013-01-10 10:16:00,
2013-01-10 05:21:00,41.4,40.6,30.50,East,82,0.0,3.0,97,0.00,,,0.00,0,HR-IXPWINDi_r2_v1.2.,2013-01-10 10:21:00,
2013-01-10 05:26:00,41.2,40.4,30.49,East,82,0.0,2.0,97,0.00,,,0.00,0,HR-IXPWINDi_r2_v1.2.,2013-01-10 10:26:00,
2013-01-10 05:31:00,41.3,40.5,30.50,East,82,0.0,2.0,97,0.00,,,0.00,0,HR-IXPWINDi_r2_v1.2.,2013-01-10 10:31:00,
2013-01-10 05:36:00,41.1,40.3,30.50,East,82,2.0,2.0,97,0.00,,,0.00,0,HR-IXPWINDi_r2_v1.2.,2013-01-10 10:36:00,
2013-01-10 05:42:00,41.1,40.3,30.50,East,82,0.0,2.0,97,0.00,,,0.00,0,HR-IXPWINDi_r2_v1.2.,2013-01-10 10:42:00,
2013-01-10 05:47:00,40.7,39.9,30.50,East,82,0.0,2.0,97,0.00,,,0.00,0,HR-IXPWINDi_r2_v1.2.,2013-01-10 10:47:00,
2013-01-10 05:52:00,40.5,39.7,30.50,East,82,0.0,1.0,97,0.00,,,0.00,0,HR-IXPWINDi_r2_v1.2.,2013-01-10 10:52:00,
2013-01-10 05:58:00,41.0,40.2,30.50,East,82,0.0,1.0,97,0.00,,,0.00,0,HR-IXPWINDi_r2_v1.2.,2013-01-10 10:58:00,
2013-01-10 06:03:00,41.0,40.2,30.50,East,82,0.0,0.0,97,0.00,,,0.00,0,HR-IXPWINDi_r2_v1.2.,2013-01-10 11:03:00,
2013-01-10 06:08:00,40.8,40.0,30.51,East,82,0.0,2.0,97,0.00,,,0.00,0,HR-IXPWINDi_r2_v1.2.,2013-01-10 11:08:00,
2013-01-10 06:13:00,40.6,39.8,30.51,East,82,0.0,2.0,97,0.00,,,0.00,0,HR-IXPWINDi_r2_v1.2.,2013-01-10 11:13:00,
2013-01-10 06:19:00,40.9,40.1,30.52,East,82,0.0,2.0,97,0.00,,,0.00,0,HR-IXPWINDi_r2_v1.2.,2013-01-10 11:19:00,
2013-01-10 06:24:00,41.0,40.2,30.52,East,82,0.0,1.0,97,0.00,,,0.00,0,HR-IXPWINDi_r2_v1.2.,2013-01-10 11:24:00,
2013-01-10 06:29:00,40.8,40.0,30.52,East,82,0.0,1.0,97,0.00,,,0.00,0,HR-IXPWINDi_r2_v1.2.,2013-01-10 11:29:00,
2013-01-10 06:34:00,41.0,40.2,30.52,East,82,0.0,0.0,97,0.00,,,0.00,0,HR-IXPWINDi_r2_v1.2.,2013-01-10 11:34:00,
2013-01-10 06:39:00,41.1,40.3,30.52,East,82,0.0,0.0,97,0.00,,,0.00,0,HR-IXPWINDi_r2_v1.2.,2013-01-10 11:39:00,
2013-01-10 06:44:00,40.9,40.1,30.52,East,82,0.0,0.0,97,0.00,,,0.00,0,HR-IXPWINDi_r2_v1.2.,2013-01-10 11:44:00,
2013-01-10 06:50:00,40.8,40.0,30.51,East,82,0.0,0.0,97,0.00,,,0.00,0,HR-IXPWINDi_r2_v1.2.,2013-01-10 11:50:00,
2013-01-10 06:55:00,40.8,40.0,30.51,East,82,0.0,0.0,97,0.00,,,0.00,0,HR-IXPWINDi_r2_v1.2.,2013-01-10 11:55:00,
2013-01-10 07:00:00,40.9,40.1,30.51,East,82,0.0,0.0,97,0.00,,,0.00,0,HR-IXPWINDi_r2_v1.2.,2013-01-10 12:00:00,
2013-01-10 07:05:00,41.1,40.3,30.51,East,82,0.0,0.0,97,0.00,,,0.00,0,HR-IXPWINDi_r2_v1.2.,2013-01-10 12:05:00,
2013-01-10 07:11:00,41.1,40.3,30.51,East,82,0.0,0.0,97,0.00,,,0.00,0,HR-IXPWINDi_r2_v1.2.,2013-01-10 12:11:00,
2013-01-10 07:16:00,41.1,40.3,30.52,East,82,2.0,2.0,97,0.00,,,0.00,0,HR-IXPWINDi_r2_v1.2.,2013-01-10 12:16:00,
2013-01-10 07:21:00,41.4,40.6,30.52,East,82,0.0,2.0,97,0.00,,,0.00,0,HR-IXPWINDi_r2_v1.2.,2013-01-10 12:21:00,
2013-01-10 07:26:00,41.4,40.6,30.52,East,82,0.0,2.0,97,0.00,,,0.00,0,HR-IXPWINDi_r2_v1.2.,2013-01-10 12:26:00,
2013-01-10 07:31:00,40.9,40.1,30.52,East,82,0.0,0.0,97,0.00,,,0.00,0,HR-IXPWINDi_r2_v1.2.,2013-01-10 12:31:00,
2013-01-10 07:36:00,41.1,40.3,30.52,East,82,0.0,0.0,97,0.00,,,0.00,0,HR-IXPWINDi_r2_v1.2.,2013-01-10 12:36:00,
2013-01-10 07:41:00,41.4,40.6,30.52,East,82,0.0,0.0,97,0.00,,,0.00,0,HR-IXPWINDi_r2_v1.2.,2013-01-10 12:41:00,
2013-01-10 07:47:00,41.3,40.5,30.52,East,82,0.0,0.0,97,0.00,,,0.00,0,HR-IXPWINDi_r2_v1.2.,2013-01-10 12:47:00,
2013-01-10 07:52:00,41.2,40.4,30.52,East,82,0.0,0.0,97,0.00,,,0.00,7,HR-IXPWINDi_r2_v1.2.,2013-01-10 12:52:00,
2013-01-10 07:57:00,41.4,40.6,30.52,East,82,0.0,0.0,97,0.00,,,0.00,9,HR-IXPWINDi_r2_v1.2.,2013-01-10 12:57:00,
2013-01-10 08:02:00,41.5,40.7,30.52,East,82,0.0,0.0,97,0.00,,,0.00,12,HR-IXPWINDi_r2_v1.2.,2013-01-10 13:02:00,
2013-01-10 08:07:00,41.7,40.9,30.53,East,82,0.0,0.0,97,0.00,,,0.00,18,HR-IXPWINDi_r2_v1.2.,2013-01-10 13:07:00,
2013-01-10 08:13:00,41.4,40.6,30.53,East,82,0.0,2.0,97,0.00,,,0.00,25,HR-IXPWINDi_r2_v1.2.,2013-01-10 13:13:00,
2013-01-10 08:18:00,41.2,40.4,30.53,East,82,0.0,2.0,97,0.00,,,0.00,28,HR-IXPWINDi_r2_v1.2.,2013-01-10 13:18:00,
2013-01-10 08:23:00,41.5,40.7,30.53,East,82,0.0,0.0,97,0.00,,,0.00,39,HR-IXPWINDi_r2_v1.2.,2013-01-10 13:23:00,
2013-01-10 08:29:00,41.8,41.0,30.54,East,82,0.0,0.0,97,0.00,,,0.00,44,HR-IXPWINDi_r2_v1.2.,2013-01-10 13:29:00,
2013-01-10 08:34:00,42.1,41.3,30.54,East,82,0.0,0.0,97,0.00,,,0.00,47,HR-IXPWINDi_r2_v1.2.,2013-01-10 13:34:00,
2013-01-10 08:39:00,42.4,41.6,30.54,East,82,0.0,0.0,97,0.00,,,0.00,54,HR-IXPWINDi_r2_v1.2.,2013-01-10 13:39:00,
2013-01-10 08:44:00,42.6,42.0,30.54,East,82,0.0,0.0,98,0.00,,,0.00,53,HR-IXPWINDi_r2_v1.2.,2013-01-10 13:44:00,
2013-01-10 08:50:00,42.8,42.2,30.54,East,82,0.0,0.0,98,0.00,,,0.00,53,HR-IXPWINDi_r2_v1.2.,2013-01-10 13:50:00,
2013-01-10 08:55:00,43.2,42.4,30.54,East,82,0.0,0.0,97,0.00,,,0.00,49,HR-IXPWINDi_r2_v1.2.,2013-01-10 13:55:00,
2013-01-10 09:00:00,43.3,42.7,30.54,East,82,0.0,2.0,98,0.00,,,0.00,47,HR-IXPWINDi_r2_v1.2.,2013-01-10 14:00:00,
2013-01-10 09:05:00,43.4,42.8,30.54,East,82,0.0,2.0,98,0.00,,,0.00,47,HR-IXPWINDi_r2_v1.2.,2013-01-10 14:05:00,
2013-01-10 09:10:00,43.7,42.8,30.54,East,82,0.0,2.0,97,0.00,,,0.00,53,HR-IXPWINDi_r2_v1.2.,2013-01-10 14:10:00,
2013-01-10 09:16:00,43.9,43.3,30.54,East,82,0.0,2.0,98,0.00,,,0.00,60,HR-IXPWINDi_r2_v1.2.,2013-01-10 14:16:00,
2013-01-10 09:21:00,44.3,43.7,30.54,East,82,0.0,0.0,98,0.00,,,0.00,67,HR-IXPWINDi_r2_v1.2.,2013-01-10 14:21:00,
2013-01-10 09:26:00,44.4,43.8,30.54,East,82,0.0,1.0,98,0.00,,,0.00,74,HR-IXPWINDi_r2_v1.2.,2013-01-10 14:26:00,
2013-01-10 09:31:00,44.8,44.2,30.54,East,82,0.0,1.0,98,0.00,,,0.00,83,HR-IXPWINDi_r2_v1.2.,2013-01-10 14:31:00,
2013-01-10 09:36:00,44.9,44.3,30.54,East,82,0.0,1.0,98,0.00,,,0.00,93,HR-IXPWINDi_r2_v1.2.,2013-01-10 14:36:00,
2013-01-10 09:41:00,45.2,44.6,30.54,East,82,0.0,1.0,98,0.00,,,0.00,105,HR-IXPWINDi_r2_v1.2.,2013-01-10 14:41:00,
2013-01-10 09:47:00,45.6,45.0,30.53,East,82,0.0,0.0,98,0.00,,,0.00,109,HR-IXPWINDi_r2_v1.2.,2013-01-10 14:47:00,
2013-01-10 09:52:00,46.1,45.5,30.53,East,82,0.0,0.0,98,0.00,,,0.00,105,HR-IXPWINDi_r2_v1.2.,2013-01-10 14:52:00,
2013-01-10 09:57:00,46.4,45.8,30.54,South,175,1.0,5.0,98,0.00,,,0.00,102,HR-IXPWINDi_r2_v1.2.,2013-01-10 14:57:00,
2013-01-10 10:03:00,46.6,45.7,30.54,South,175,1.0,5.0,97,0.00,,,0.00,98,HR-IXPWINDi_r2_v1.2.,2013-01-10 15:03:00,
2013-01-10 10:08:00,47.0,46.4,30.54,South,175,0.0,4.0,98,0.00,,,0.00,98,HR-IXPWINDi_r2_v1.2.,2013-01-10 15:08:00,
2013-01-10 10:13:00,47.4,46.5,30.54,South,175,0.0,1.0,97,0.00,,,0.00,102,HR-IXPWINDi_r2_v1.2.,2013-01-10 15:13:00,
2013-01-10 10:18:00,47.6,46.7,30.54,South,175,0.0,2.0,97,0.00,,,0.00,118,HR-IXPWINDi_r2_v1.2.,2013-01-10 15:18:00,
2013-01-10 10:23:00,47.8,46.9,30.54,South,175,0.0,2.0,97,0.00,,,0.00,132,HR-IXPWINDi_r2_v1.2.,2013-01-10 15:23:00,
2013-01-10 10:28:00,47.9,47.0,30.54,South,175,0.0,4.0,97,0.00,,,0.00,165,HR-IXPWINDi_r2_v1.2.,2013-01-10 15:28:00,
2013-01-10 10:34:00,48.3,47.4,30.54,South,175,0.0,4.0,97,0.00,,,0.00,279,HR-IXPWINDi_r2_v1.2.,2013-01-10 15:34:00,
2013-01-10 10:39:00,49.3,48.1,30.54,South,175,0.0,2.0,96,0.00,,,0.00,214,HR-IXPWINDi_r2_v1.2.,2013-01-10 15:39:00,
2013-01-10 10:44:00,50.0,48.3,30.53,South,175,1.0,4.0,94,0.00,,,0.00,214,HR-IXPWINDi_r2_v1.2.,2013-01-10 15:44:00,
2013-01-10 10:49:00,50.3,48.6,30.53,South,175,0.0,4.0,94,0.00,,,0.00,207,HR-IXPWINDi_r2_v1.2.,2013-01-10 15:49:00,
2013-01-10 10:54:00,50.5,48.5,30.53,South,175,0.0,1.0,93,0.00,,,0.00,260,HR-IXPWINDi_r2_v1.2.,2013-01-10 15:54:00,
2013-01-10 10:59:00,50.9,48.9,30.53,South,175,0.0,1.0,93,0.00,,,0.00,267,HR-IXPWINDi_r2_v1.2.,2013-01-10 15:59:00,
2013-01-10 11:05:00,51.7,49.4,30.53,South,175,2.0,4.0,92,0.00,,,0.00,220,HR-IXPWINDi_r2_v1.2.,2013-01-10 16:05:00,
2013-01-10 11:10:00,52.2,49.9,30.53,South,175,2.0,4.0,92,0.00,,,0.00,278,HR-IXPWINDi_r2_v1.2.,2013-01-10 16:10:00,
2013-01-10 11:15:00,52.6,50.0,30.53,South,175,0.0,4.0,91,0.00,,,0.00,225,HR-IXPWINDi_r2_v1.2.,2013-01-10 16:15:00,
2013-01-10 11:20:00,53.1,49.9,30.53,South,175,0.0,4.0,89,0.00,,,0.00,218,HR-IXPWINDi_r2_v1.2.,2013-01-10 16:20:00,
2013-01-10 11:26:00,53.5,50.3,30.52,South,175,0.0,4.0,89,0.00,,,0.00,271,HR-IXPWINDi_r2_v1.2.,2013-01-10 16:26:00,
2013-01-10 11:31:00,54.2,50.7,30.52,South,175,0.0,2.0,88,0.00,,,0.00,279,HR-IXPWINDi_r2_v1.2.,2013-01-10 16:31:00,
2013-01-10 11:36:00,55.4,51.5,30.52,South,175,0.0,1.0,87,0.00,,,0.00,306,HR-IXPWINDi_r2_v1.2.,2013-01-10 16:36:00,
2013-01-10 11:41:00,55.4,50.9,30.51,South,171,0.0,4.0,85,0.00,,,0.00,353,HR-IXPWINDi_r2_v1.2.,2013-01-10 16:41:00,
2013-01-10 11:47:00,56.4,51.9,30.51,South,171,2.0,4.0,85,0.00,,,0.00,241,HR-IXPWINDi_r2_v1.2.,2013-01-10 16:47:00,
2013-01-10 11:52:00,57.3,52.1,30.51,South,171,0.0,2.0,83,0.00,,,0.00,223,HR-IXPWINDi_r2_v1.2.,2013-01-10 16:52:00,
2013-01-10 11:57:00,57.7,52.5,30.50,South,169,0.0,4.0,83,0.00,,,0.00,213,HR-IXPWINDi_r2_v1.2.,2013-01-10 16:57:00,
2013-01-10 12:02:00,57.3,52.1,30.50,South,170,0.0,4.0,83,0.00,,,0.00,209,HR-IXPWINDi_r2_v1.2.,2013-01-10 17:02:00,
2013-01-10 12:08:00,58.1,52.9,30.49,SSW,192,0.0,4.0,83,0.00,,,0.00,251,HR-IXPWINDi_r2_v1.2.,2013-01-10 17:08:00,
2013-01-10 12:13:00,59.0,53.1,30.48,SSW,192,1.0,4.0,81,0.00,,,0.00,244,HR-IXPWINDi_r2_v1.2.,2013-01-10 17:13:00,
2013-01-10 12:18:00,60.7,53.7,30.48,SSW,193,3.0,4.0,78,0.00,,,0.00,218,HR-IXPWINDi_r2_v1.2.,2013-01-10 17:18:00,
2013-01-10 12:23:00,61.3,54.0,30.48,SE,138,4.0,4.0,77,0.00,,,0.00,195,HR-IXPWINDi_r2_v1.2.,2013-01-10 17:23:00,
2013-01-10 12:28:00,61.8,54.1,30.48,SE,138,2.0,5.0,76,0.00,,,0.00,195,HR-IXPWINDi_r2_v1.2.,2013-01-10 17:28:00,
2013-01-10 12:33:00,62.4,53.9,30.47,SE,126,0.0,5.0,74,0.00,,,0.00,169,HR-IXPWINDi_r2_v1.2.,2013-01-10 17:33:00,
2013-01-10 12:39:00,62.2,53.7,30.47,SSW,199,3.0,12.0,74,0.00,,,0.00,192,HR-IXPWINDi_r2_v1.2.,2013-01-10 17:39:00,
2013-01-10 12:44:00,62.1,53.7,30.46,South,182,4.0,15.0,74,0.00,,,0.00,188,HR-IXPWINDi_r2_v1.2.,2013-01-10 17:44:00,
2013-01-10 12:49:00,62.1,53.7,30.46,SW,236,0.0,15.0,74,0.00,,,0.00,207,HR-IXPWINDi_r2_v1.2.,2013-01-10 17:49:00,
2013-01-10 12:55:00,62.3,53.5,30.46,WSW,238,2.0,10.0,73,0.00,,,0.00,251,HR-IXPWINDi_r2_v1.2.,2013-01-10 17:55:00,
2013-01-10 13:00:00,62.6,53.4,30.46,SSW,195,3.0,9.0,72,0.00,,,0.00,246,HR-IXPWINDi_r2_v1.2.,2013-01-10 18:00:00,
2013-01-10 13:05:00,62.7,53.5,30.45,SSW,202,5.0,7.0,72,0.00,,,0.00,251,HR-IXPWINDi_r2_v1.2.,2013-01-10 18:05:00,
2013-01-10 13:10:00,62.7,53.1,30.45,SSE,151,1.0,11.0,71,0.00,,,0.00,255,HR-IXPWINDi_r2_v1.2.,2013-01-10 18:10:00,
2013-01-10 13:15:00,63.4,53.8,30.45,SE,134,5.0,11.0,71,0.00,,,0.00,278,HR-IXPWINDi_r2_v1.2.,2013-01-10 18:15:00,
2013-01-10 13:20:00,63.1,53.5,30.45,SE,129,14.0,14.0,71,0.00,,,0.00,257,HR-IXPWINDi_r2_v1.2.,2013-01-10 18:20:00,
2013-01-10 13:25:00,63.2,53.6,30.44,ESE,119,4.0,14.0,71,0.00,,,0.00,403,HR-IXPWINDi_r2_v1.2.,2013-01-10 18:25:00,
2013-01-10 13:30:00,63.6,53.6,30.44,East,84,3.0,14.0,70,0.00,,,0.00,294,HR-IXPWINDi_r2_v1.2.,2013-01-10 18:30:00,
2013-01-10 13:36:00,63.9,53.9,30.44,SSE,154,6.0,12.0,70,0.00,,,0.00,255,HR-IXPWINDi_r2_v1.2.,2013-01-10 18:36:00,
2013-01-10 13:41:00,63.8,53.4,30.43,ESE,115,4.0,8.0,69,0.00,,,0.00,223,HR-IXPWINDi_r2_v1.2.,2013-01-10 18:41:00,
2013-01-10 13:46:00,63.9,53.5,30.43,SE,126,1.0,8.0,69,0.00,,,0.00,218,HR-IXPWINDi_r2_v1.2.,2013-01-10 18:46:00,
2013-01-10 13:51:00,63.8,53.4,30.43,SSW,197,0.0,11.0,69,0.00,,,0.00,199,HR-IXPWINDi_r2_v1.2.,2013-01-10 18:51:00,
2013-01-10 13:57:00,64.0,53.2,30.43,East,87,1.0,11.0,68,0.00,,,0.00,230,HR-IXPWINDi_r2_v1.2.,2013-01-10 18:57:00,
2013-01-10 14:02:00,64.1,53.3,30.42,SE,127,4.0,13.0,68,0.00,,,0.00,216,HR-IXPWINDi_r2_v1.2.,2013-01-10 19:02:00,
2013-01-10 14:07:00,64.0,53.2,30.42,ESE,115,2.0,13.0,68,0.00,,,0.00,279,HR-IXPWINDi_r2_v1.2.,2013-01-10 19:07:00,
2013-01-10 14:12:00,63.9,53.1,30.42,ESE,111,0.0,11.0,68,0.00,,,0.00,265,HR-IXPWINDi_r2_v1.2.,2013-01-10 19:12:00,
2013-01-10 14:17:00,63.7,53.3,30.42,SSE,152,11.0,14.0,69,0.00,,,0.00,364,HR-IXPWINDi_r2_v1.2.,2013-01-10 19:17:00,
2013-01-10 14:22:00,64.0,53.2,30.42,ESE,109,5.0,14.0,68,0.00,,,0.00,257,HR-IXPWINDi_r2_v1.2.,2013-01-10 19:22:00,
2013-01-10 14:27:00,63.9,53.5,30.42,SSE,155,0.0,13.0,69,0.00,,,0.00,359,HR-IXPWINDi_r2_v1.2.,2013-01-10 19:27:00,
2013-01-10 14:32:00,64.4,53.6,30.42,SSE,153,8.0,13.0,68,0.00,,,0.00,322,HR-IXPWINDi_r2_v1.2.,2013-01-10 19:32:00,
2013-01-10 14:38:00,64.9,54.0,30.41,ESE,105,6.0,10.0,68,0.00,,,0.00,383,HR-IXPWINDi_r2_v1.2.,2013-01-10 19:38:00,
2013-01-10 14:43:00,64.9,53.6,30.42,SSE,164,10.0,16.0,67,0.00,,,0.00,276,HR-IXPWINDi_r2_v1.2.,2013-01-10 19:43:00,
2013-01-10 14:48:00,64.8,53.9,30.41,SE,130,15.0,16.0,68,0.00,,,0.00,376,HR-IXPWINDi_r2_v1.2.,2013-01-10 19:48:00,
2013-01-10 14:53:00,65.1,53.8,30.42,SE,134,4.0,16.0,67,0.00,,,0.00,348,HR-IXPWINDi_r2_v1.2.,2013-01-10 19:53:00,
2013-01-10 14:58:00,65.4,53.7,30.41,SSW,197,11.0,15.0,66,0.00,,,0.00,374,HR-IXPWINDi_r2_v1.2.,2013-01-10 19:58:00,
2013-01-10 15:03:00,65.0,53.7,30.41,South,171,7.0,15.0,67,0.00,,,0.00,308,HR-IXPWINDi_r2_v1.2.,2013-01-10 20:03:00,
2013-01-10 15:09:00,64.9,54.0,30.41,SSE,148,5.0,17.0,68,0.00,,,0.00,315,HR-IXPWINDi_r2_v1.2.,2013-01-10 20:09:00,
2013-01-10 15:14:00,64.8,53.5,30.41,SSE,153,10.0,17.0,67,0.00,,,0.00,295,HR-IXPWINDi_r2_v1.2.,2013-01-10 20:14:00,
2013-01-10 15:19:00,65.1,53.8,30.42,SE,126,12.0,20.0,67,0.00,,,0.00,339,HR-IXPWINDi_r2_v1.2.,2013-01-10 20:19:00,
2013-01-10 15:24:00,65.0,53.7,30.41,SSW,205,0.0,20.0,67,0.00,,,0.00,253,HR-IXPWINDi_r2_v1.2.,2013-01-10 20:24:00,
2013-01-10 15:29:00,64.9,53.6,30.41,SSE,155,11.0,16.0,67,0.00,,,0.00,221,HR-IXPWINDi_r2_v1.2.,2013-01-10 20:29:00,
2013-01-10 15:34:00,64.6,53.3,30.41,SSW,198,11.0,16.0,67,0.00,,,0.00,183,HR-IXPWINDi_r2_v1.2.,2013-01-10 20:34:00,
2013-01-10 15:39:00,64.7,53.4,30.41,South,173,5.0,16.0,67,0.00,,,0.00,260,HR-IXPWINDi_r2_v1.2.,2013-01-10 20:39:00,
2013-01-10 15:45:00,65.1,53.8,30.41,ESE,123,2.0,12.0,67,0.00,,,0.00,299,HR-IXPWINDi_r2_v1.2.,2013-01-10 20:45:00,
2013-01-10 15:50:00,65.0,53.7,30.41,SSE,154,5.0,11.0,67,0.00,,,0.00,264,HR-IXPWINDi_r2_v1.2.,2013-01-10 20:50:00,
2013-01-10 15:55:00,65.1,53.8,30.41,SE,124,6.0,10.0,67,0.00,,,0.00,246,HR-IXPWINDi_r2_v1.2.,2013-01-10 20:55:00,
2013-01-10 16:00:00,65.0,53.7,30.41,SSE,156,7.0,10.0,67,0.00,,,0.00,214,HR-IXPWINDi_r2_v1.2.,2013-01-10 21:00:00,
2013-01-10 16:05:00,65.2,53.9,30.41,SE,136,2.0,10.0,67,0.00,,,0.00,190,HR-IXPWINDi_r2_v1.2.,2013-01-10 21:05:00,
2013-01-10 16:11:00,64.6,53.3,30.41,ESE,121,2.0,13.0,67,0.00,,,0.00,114,HR-IXPWINDi_r2_v1.2.,2013-01-10 21:11:00,
2013-01-10 16:16:00,64.5,53.6,30.41,ESE,110,1.0,13.0,68,0.00,,,0.00,83,HR-IXPWINDi_r2_v1.2.,2013-01-10 21:16:00,
2013-01-10 16:21:00,64.1,53.3,30.41,SSE,165,12.0,14.0,68,0.00,,,0.00,63,HR-IXPWINDi_r2_v1.2.,2013-01-10 21:21:00,
2013-01-10 16:26:00,63.4,53.0,30.41,SE,126,5.0,14.0,69,0.00,,,0.00,90,HR-IXPWINDi_r2_v1.2.,2013-01-10 21:26:00,
2013-01-10 16:31:00,63.6,53.6,30.41,SW,217,0.0,14.0,70,0.00,,,0.00,97,HR-IXPWINDi_r2_v1.2.,2013-01-10 21:31:00,
2013-01-10 16:36:00,63.8,53.0,30.40,NNW,329,0.0,7.0,68,0.00,,,0.00,40,HR-IXPWINDi_r2_v1.2.,2013-01-10 21:36:00,
2013-01-10 16:42:00,63.2,52.8,30.41,ESE,111,4.0,7.0,69,0.00,,,0.00,49,HR-IXPWINDi_r2_v1.2.,2013-01-10 21:42:00,
2013-01-10 16:47:00,63.0,52.6,30.41,SE,145,8.0,8.0,69,0.00,,,0.00,58,HR-IXPWINDi_r2_v1.2.,2013-01-10 21:47:00,
2013-01-10 16:52:00,62.8,52.8,30.41,South,182,7.0,18.0,70,0.00,,,0.00,42,HR-IXPWINDi_r2_v1.2.,2013-01-10 21:52:00,
2013-01-10 16:57:00,62.4,52.4,30.41,SSE,151,6.0,18.0,70,0.00,,,0.00,35,HR-IXPWINDi_r2_v1.2.,2013-01-10 21:57:00,
2013-01-10 17:03:00,62.2,52.6,30.41,ESE,113,5.0,12.0,71,0.00,,,0.00,25,HR-IXPWINDi_r2_v1.2.,2013-01-10 22:03:00,
2013-01-10 17:08:00,61.9,52.3,30.41,SE,124,2.0,12.0,71,0.00,,,0.00,18,HR-IXPWINDi_r2_v1.2.,2013-01-10 22:08:00,
2013-01-10 17:13:00,61.6,52.4,30.41,NE,56,0.0,14.0,72,0.00,,,0.00,12,HR-IXPWINDi_r2_v1.2.,2013-01-10 22:13:00,
2013-01-10 17:18:00,61.4,52.2,30.41,SSE,161,1.0,14.0,72,0.00,,,0.00,9,HR-IXPWINDi_r2_v1.2.,2013-01-10 22:18:00,
2013-01-10 17:24:00,61.0,52.2,30.41,SE,131,5.0,8.0,73,0.00,,,0.00,7,HR-IXPWINDi_r2_v1.2.,2013-01-10 22:24:00,
2013-01-10 17:29:00,60.7,51.9,30.41,North,351,2.0,8.0,73,0.00,,,0.00,0,HR-IXPWINDi_r2_v1.2.,2013-01-10 22:29:00,
2013-01-10 17:35:00,59.7,51.7,30.41,ESE,117,0.0,8.0,75,0.00,,,0.00,0,HR-IXPWINDi_r2_v1.2.,2013-01-10 22:35:00,
2013-01-10 17:40:00,58.8,51.2,30.41,ENE,75,0.0,4.0,76,0.00,,,0.00,0,HR-IXPWINDi_r2_v1.2.,2013-01-10 22:40:00,
2013-01-10 17:45:00,58.0,51.1,30.41,ESE,115,0.0,4.0,78,0.00,,,0.00,0,HR-IXPWINDi_r2_v1.2.,2013-01-10 22:45:00,
2013-01-10 17:51:00,58.0,51.1,30.41,ESE,115,0.0,4.0,78,0.00,,,0.00,0,HR-IXPWINDi_r2_v1.2.,2013-01-10 22:51:00,
2013-01-10 17:56:00,58.2,51.0,30.42,SE,131,0.0,8.0,77,0.00,,,0.00,0,HR-IXPWINDi_r2_v1.2.,2013-01-10 22:56:00,
2013-01-10 18:01:00,57.4,50.9,30.42,SE,140,4.0,8.0,79,0.00,,,0.00,0,HR-IXPWINDi_r2_v1.2.,2013-01-10 23:01:00,
2013-01-10 18:06:00,58.4,51.5,30.41,SE,138,8.0,9.0,78,0.00,,,0.00,0,HR-IXPWINDi_r2_v1.2.,2013-01-10 23:06:00,
2013-01-10 18:12:00,58.5,51.3,30.41,East,92,0.0,12.0,77,0.00,,,0.00,0,HR-IXPWINDi_r2_v1.2.,2013-01-10 23:12:00,
2013-01-10 18:17:00,58.4,51.5,30.41,ESE,118,1.0,12.0,78,0.00,,,0.00,0,HR-IXPWINDi_r2_v1.2.,2013-01-10 23:17:00,
2013-01-10 18:22:00,58.9,51.3,30.41,ESE,121,5.0,11.0,76,0.00,,,0.00,0,HR-IXPWINDi_r2_v1.2.,2013-01-10 23:22:00,
2013-01-10 18:27:00,59.0,51.4,30.40,SE,126,7.0,11.0,76,0.00,,,0.00,0,HR-IXPWINDi_r2_v1.2.,2013-01-10 23:27:00,
2013-01-10 18:32:00,58.9,51.3,30.41,East,99,5.0,11.0,76,0.00,,,0.00,0,HR-IXPWINDi_r2_v1.2.,2013-01-10 23:32:00,
2013-01-10 18:38:00,59.1,51.1,30.40,ESE,115,5.0,8.0,75,0.00,,,0.00,0,HR-IXPWINDi_r2_v1.2.,2013-01-10 23:38:00,
2013-01-10 18:43:00,58.8,50.8,30.40,SSE,153,4.0,9.0,75,0.00,,,0.00,0,HR-IXPWINDi_r2_v1.2.,2013-01-10 23:43:00,
2013-01-10 18:48:00,59.1,51.1,30.39,East,100,4.0,9.0,75,0.00,,,0.00,0,HR-IXPWINDi_r2_v1.2.,2013-01-10 23:48:00,
2013-01-10 18:53:00,59.1,50.8,30.40,SE,141,4.0,9.0,74,0.00,,,0.00,0,HR-IXPWINDi_r2_v1.2.,2013-01-10 23:53:00,
2013-01-10 18:58:00,59.0,50.7,30.40,SSE,153,1.0,7.0,74,0.00,,,0.00,0,HR-IXPWINDi_r2_v1.2.,2013-01-10 23:58:00,
2013-01-10 19:03:00,58.7,50.7,30.41,South,171,12.0,13.0,75,0.00,,,0.00,0,HR-IXPWINDi_r2_v1.2.,2013-01-11 00:03:00,
2013-01-10 19:09:00,59.4,51.1,30.40,SE,146,5.0,13.0,74,0.00,,,0.00,0,HR-IXPWINDi_r2_v1.2.,2013-01-11 00:09:00,
2013-01-10 19:14:00,59.5,51.1,30.40,South,191,8.0,13.0,74,0.00,,,0.00,0,HR-IXPWINDi_r2_v1.2.,2013-01-11 00:14:00,
2013-01-10 19:19:00,59.4,51.1,30.40,SE,144,4.0,13.0,74,0.00,,,0.00,0,HR-IXPWINDi_r2_v1.2.,2013-01-11 00:19:00,
2013-01-10 19:24:00,59.4,51.1,30.40,SSE,156,6.0,14.0,74,0.00,,,0.00,0,HR-IXPWINDi_r2_v1.2.,2013-01-11 00:24:00,
2013-01-10 19:29:00,59.3,51.3,30.40,South,191,2.0,14.0,75,0.00,,,0.00,0,HR-IXPWINDi_r2_v1.2.,2013-01-11 00:29:00,
2013-01-10 19:35:00,59.2,51.2,30.39,SSE,149,7.0,12.0,75,0.00,,,0.00,0,HR-IXPWINDi_r2_v1.2.,2013-01-11 00:35:00,
2013-01-10 19:40:00,59.0,51.0,30.39,SE,134,7.0,12.0,75,0.00,,,0.00,0,HR-IXPWINDi_r2_v1.2.,2013-01-11 00:40:00,
2013-01-10 19:45:00,58.7,50.7,30.39,South,179,1.0,11.0,75,0.00,,,0.00,0,HR-IXPWINDi_r2_v1.2.,2013-01-11 00:45:00,
2013-01-10 19:50:00,58.5,50.9,30.40,South,184,6.0,9.0,76,0.00,,,0.00,0,HR-IXPWINDi_r2_v1.2.,2013-01-11 00:50:00,
2013-01-10 19:55:00,58.5,50.9,30.40,SE,134,0.0,10.0,76,0.00,,,0.00,0,HR-IXPWINDi_r2_v1.2.,2013-01-11 00:55:00,
2013-01-10 20:01:00,58.2,50.6,30.39,SSW,198,0.0,10.0,76,0.00,,,0.00,0,HR-IXPWINDi_r2_v1.2.,2013-01-11 01:01:00,
2013-01-10 20:06:00,57.7,50.5,30.39,SE,140,4.0,6.0,77,0.00,,,0.00,0,HR-IXPWINDi_r2_v1.2.,2013-01-11 01:06:00,
2013-01-10 20:11:00,57.8,50.6,30.38,SE,134,6.0,12.0,77,0.00,,,0.00,0,HR-IXPWINDi_r2_v1.2.,2013-01-11 01:11:00,
2013-01-10 20:16:00,57.9,50.3,30.38,SE,132,2.0,12.0,76,0.00,,,0.00,0,HR-IXPWINDi_r2_v1.2.,2013-01-11 01:16:00,
2013-01-10 20:21:00,57.5,49.9,30.38,SSE,156,0.0,7.0,76,0.00,,,0.00,0,HR-IXPWINDi_r2_v1.2.,2013-01-11 01:21:00,
2013-01-10 20:27:00,57.5,49.9,30.39,SE,134,1.0,7.0,76,0.00,,,0.00,0,HR-IXPWINDi_r2_v1.2.,2013-01-11 01:27:00,
2013-01-10 20:32:00,57.5,49.9,30.39,ESE,119,5.0,8.0,76,0.00,,,0.00,0,HR-IXPWINDi_r2_v1.2.,2013-01-11 01:32:00,
2013-01-10 20:37:00,57.7,50.1,30.39,South,186,0.0,8.0,76,0.00,,,0.00,0,HR-IXPWINDi_r2_v1.2.,2013-01-11 01:37:00,
2013-01-10 20:42:00,57.9,50.0,30.38,SE,124,0.0,7.0,75,0.00,,,0.00,0,HR-IXPWINDi_r2_v1.2.,2013-01-11 01:42:00,
2013-01-10 20:47:00,58.0,50.1,30.38,ESE,120,2.0,11.0,75,0.00,,,0.00,0,HR-IXPWINDi_r2_v1.2.,2013-01-11 01:47:00,
2013-01-10 20:53:00,58.0,50.1,30.38,SE,134,7.0,11.0,75,0.00,,,0.00,0,HR-IXPWINDi_r2_v1.2.,2013-01-11 01:53:00,
2013-01-10 20:58:00,58.2,50.3,30.38,SSW,198,3.0,12.0,75,0.00,,,0.00,0,HR-IXPWINDi_r2_v1.2.,2013-01-11 01:58:00,
2013-01-10 21:03:00,58.2,49.9,30.37,SSE,150,0.0,12.0,74,0.00,,,0.00,0,HR-IXPWINDi_r2_v1.2.,2013-01-11 02:03:00,
2013-01-10 21:08:00,58.2,49.9,30.37,SSE,148,7.0,9.0,74,0.00,,,0.00,0,HR-IXPWINDi_r2_v1.2.,2013-01-11 02:08:00,
2013-01-10 21:13:00,58.0,49.7,30.37,SE,142,7.0,9.0,74,0.00,,,0.00,0,HR-IXPWINDi_r2_v1.2.,2013-01-11 02:13:00,
2013-01-10 21:18:00,58.1,49.8,30.37,East,93,5.0,9.0,74,0.00,,,0.00,0,HR-IXPWINDi_r2_v1.2.,2013-01-11 02:18:00,
2013-01-10 21:24:00,58.1,49.4,30.37,NNE,24,3.0,9.0,73,0.00,,,0.00,0,HR-IXPWINDi_r2_v1.2.,2013-01-11 02:24:00,
2013-01-10 21:29:00,58.0,49.3,30.37,ENE,73,1.0,9.0,73,0.00,,,0.00,0,HR-IXPWINDi_r2_v1.2.,2013-01-11 02:29:00,
2013-01-10 21:34:00,58.0,49.3,30.36,South,171,0.0,9.0,73,0.00,,,0.00,0,HR-IXPWINDi_r2_v1.2.,2013-01-11 02:34:00,
2013-01-10 21:39:00,58.0,49.3,30.36,ESE,117,6.0,11.0,73,0.00,,,0.00,0,HR-IXPWINDi_r2_v1.2.,2013-01-11 02:39:00,
2013-01-10 21:44:00,58.1,49.4,30.36,East,101,2.0,11.0,73,0.00,,,0.00,0,HR-IXPWINDi_r2_v1.2.,2013-01-11 02:44:00,
2013-01-10 21:49:00,58.0,49.3,30.36,ENE,68,4.0,13.0,73,0.00,,,0.00,0,HR-IXPWINDi_r2_v1.2.,2013-01-11 02:49:00,
2013-01-10 21:55:00,58.1,49.4,30.35,ESE,107,5.0,13.0,73,0.00,,,0.00,0,HR-IXPWINDi_r2_v1.2.,2013-01-11 02:55:00,
2013-01-10 22:00:00,58.1,49.4,30.35,SSE,163,0.0,12.0,73,0.00,,,0.00,0,HR-IXPWINDi_r2_v1.2.,2013-01-11 03:00:00,
2013-01-10 22:05:00,58.1,49.4,30.35,ESE,115,4.0,12.0,73,0.00,,,0.00,0,HR-IXPWINDi_r2_v1.2.,2013-01-11 03:05:00,
2013-01-10 22:10:00,57.9,49.2,30.34,ESE,108,0.0,10.0,73,0.00,,,0.00,0,HR-IXPWINDi_r2_v1.2.,2013-01-11 03:10:00,
2013-01-10 22:16:00,57.9,48.9,30.33,ESE,119,8.0,13.0,72,0.00,,,0.00,0,HR-IXPWINDi_r2_v1.2.,2013-01-11 03:16:00,
2013-01-10 22:21:00,57.8,48.8,30.33,ESE,116,2.0,13.0,72,0.00,,,0.00,0,HR-IXPWINDi_r2_v1.2.,2013-01-11 03:21:00,
2013-01-10 22:26:00,57.9,48.9,30.33,South,171,8.0,12.0,72,0.00,,,0.00,0,HR-IXPWINDi_r2_v1.2.,2013-01-11 03:26:00,
2013-01-10 22:31:00,57.8,48.8,30.33,South,184,5.0,12.0,72,0.00,,,0.00,0,HR-IXPWINDi_r2_v1.2.,2013-01-11 03:31:00,
2013-01-10 22:36:00,57.8,48.8,30.33,ESE,115,2.0,12.0,72,0.00,,,0.00,0,HR-IXPWINDi_r2_v1.2.,2013-01-11 03:36:00,
2013-01-10 22:42:00,57.5,48.1,30.33,SSE,156,4.0,12.0,71,0.00,,,0.00,0,HR-IXPWINDi_r2_v1.2.,2013-01-11 03:42:00,
2013-01-10 22:47:00,57.3,47.9,30.33,ESE,119,2.0,15.0,71,0.00,,,0.00,0,HR-IXPWINDi_r2_v1.2.,2013-01-11 03:47:00,
2013-01-10 22:52:00,57.2,48.2,30.33,SSW,192,6.0,15.0,72,0.00,,,0.00,0,HR-IXPWINDi_r2_v1.2.,2013-01-11 03:52:00,
2013-01-10 22:57:00,56.8,47.8,30.33,East,94,5.0,15.0,72,0.00,,,0.00,0,HR-IXPWINDi_r2_v1.2.,2013-01-11 03:57:00,
2013-01-10 23:02:00,56.8,48.2,30.32,SE,146,9.0,23.0,73,0.00,,,0.00,0,HR-IXPWINDi_r2_v1.2.,2013-01-11 04:02:00,
2013-01-10 23:07:00,56.5,47.9,30.32,SE,125,11.0,23.0,73,0.00,,,0.00,0,HR-IXPWINDi_r2_v1.2.,2013-01-11 04:07:00,
2013-01-10 23:12:00,56.4,48.2,30.31,East,98,12.0,18.0,74,0.00,,,0.00,0,HR-IXPWINDi_r2_v1.2.,2013-01-11 04:12:00,
2013-01-10 23:18:00,56.3,48.1,30.31,East,86,5.0,18.0,74,0.00,,,0.00,0,HR-IXPWINDi_r2_v1.2.,2013-01-11 04:18:00,
2013-01-10 23:23:00,56.4,48.5,30.31,ESE,121,11.0,15.0,75,0.00,,,0.00,0,HR-IXPWINDi_r2_v1.2.,2013-01-11 04:23:00,
2013-01-10 23:28:00,56.2,48.0,30.31,SSE,151,1.0,15.0,74,0.00,,,0.00,0,HR-IXPWINDi_r2_v1.2.,2013-01-11 04:28:00,
2013-01-10 23:33:00,55.9,48.0,30.31,SE,138,5.0,14.0,75,0.00,,,0.00,0,HR-IXPWINDi_r2_v1.2.,2013-01-11 04:33:00,
2013-01-10 23:38:00,55.6,47.7,30.32,SE,131,9.0,20.0,75,0.00,,,0.00,0,HR-IXPWINDi_r2_v1.2.,2013-01-11 04:38:00,
2013-01-10 23:43:00,55.3,47.8,30.31,SSE,148,11.0,27.0,76,0.00,,,0.00,0,HR-IXPWINDi_r2_v1.2.,2013-01-11 04:43:00,
2013-01-10 23:48:00,55.3,48.2,30.31,SE,124,9.0,27.0,77,0.00,,,0.00,0,HR-IXPWINDi_r2_v1.2.,2013-01-11 04:48:00,
2013-01-10 23:54:00,54.9,47.8,30.32,SE,132,17.0,21.0,77,0.00,,,0.00,0,HR-IXPWINDi_r2_v1.2.,2013-01-11 04:54:00,
2013-01-10 23:59:00,54.5,48.1,30.31,SE,145,10.0,21.0,79,0.00,,,0.00,0,HR-IXPWINDi_r2_v1.2.,2013-01-11 04:59:00,